SCP
-0 -0 -0 -0 -0 -0 -0 -0 -0 -0 -0 -0 -0 -0 -0 -0 -0 -0 -0 -0 0 0 0 0 0 0 0
0 -0 -0 -0 -0 -0 -0 -0 -0 -0 -0 -0 -0 -0 -0 -0 -0 -0 -0 0 0 0 0 0 0 0 0
0 0 -0 -0 -0 -0 -0 -0 -0 0 -0 -0 -0 -0 -0 -0 -0 -0 0 0 0 0 0 0 0 0 0
0 0 0 0 0 0 0 0 0 0 0 0 0 -0 -0 0 -0 -0 0 0 0 0 0 0 0 0 0
0 0 0 0 0 0 0 0 0 0 0 0 0 0 0 0 0 0 0 0 0 0 0 0 0 0 0
0 0 0 0 0 0 0 0 0 0 0 0 0 0 0 0 0 0 0 0 0 0 0 0 0 0 0
0 0 0 0 0 0 0 0 0 0 0 0 0 0 0 0 0 0 0 0 0 0 0 0 0 0 0
0 0 0 0 0 0 0 0 0 0 0 0 0 0 0 0 0 0 0 0 0 0 0 0 0 0 0
0 0 0 0 0 0 0 0 0 0 0 0 0 0 0 0 0 0 0 0 0 0 0 0 0 0 0
0 0 0 0 0 0 0 0 0 0 0 0 0 0 0 0 0 0 0 0 0 0 0 0 0 0 0
0 0 0 0 0 0 0 0 0 0 0 0 0 0 0 0 0 0 0 0 0 0 0 0 0 0 0
0 0 0 0 0 0 0 0 0 0 0 0 0 0 0 0 0 0 0 0 0 0 0 0 0 0 0
0 0 0 0 0 0 0 0 0 0 0 0 0 0 0 0 0 0 0 0 0 0 0 0 0 0 0
0 0 0 0 0 0 0 0 0 0 0 0 0 0 0 0 0 0 0 0 0 0 0 0 0 0 0
0 0 0 0 0 0 0 0 0 0 0 0 0 0 0 0 0 0 0 0 0 0 0 0 0 0 0
0 0 0 0 0 0 0 0 0 0 0 0 0 0 0 0 0 0 0 0 0 0 0 0 0 0 0
Wind_Speed_500mb
23 19 16 11 7 4 4 6 5 4 5 9 18 26 30 31 30 27 28 28 28 25 21 17 13 11 11
30 24 18 12 9 7 5 2 2 1 2 7 15 20 24 23 26 29 26 28 27 28 25 20 16 16 15
35 27 23 21 16 12 10 9 6 5 4 7 9 15 20 22 23 24 30 35 31 31 31 28 24 21 20
31 26 24 25 25 23 21 14 13 10 10 15 2 7 5 13 19 20 24 29 32 34 30 30 30 30 29
28 32 27 22 28 24 20 18 18 22 17 8 5 2 5 3 6 12 22 22 26 30 34 33 33 31 30
29 30 34 34 28 24 19 24 23 21 16 11 4 6 2 6 13 7 16 19 19 22 27 27 29 29 28
35 32 34 33 39 26 24 24 21 15 11 7 6 6 10 13 18 18 14 10 12 14 19 20 22 26 26
32 33 32 32 30 30 27 28 24 18 15 17 16 13 21 15 10 12 11 10 10 14 14 15 15 16 16
32 35 36 32 30 28 26 21 18 19 17 16 15 13 10 9 10 7 8 12 12 13 13 11 12 13 13
36 37 35 32 30 26 19 19 22 21 18 16 12 9 7 5 3 9 13 11 12 10 10 9 7 8 10
38 38 34 32 31 28 25 24 27 20 15 14 12 10 9 7 8 8 6 7 8 12 11 9 9 13 10
42 40 39 37 33 30 28 29 24 20 18 14 14 13 9 5 3 3 6 11 16 17 12 6 6 11 9
44 44 42 39 36 33 33 30 24 22 20 16 15 14 11 7 9 12 14 14 16 19 11 14 10 4 7
46 47 43 42 41 38 34 30 27 25 22 19 16 13 12 11 11 12 15 19 21 19 18 6 5 7 8
48 47 47 47 42 40 39 38 34 27 23 17 13 12 10 9 9 14 17 21 26 26 25 16 6 7 32
48 49 46 46 49 48 44 38 33 26 20 15 11 9 7 10 12 16 21 24 23 25 24 24 20 20 15
Wind_Direction_500mb
201 201 196 190 182 170 120 97 75 66 41 42 43 36 33 31 30 32 37 38 38 38 38 38 34 21 14
204 207 210 215 222 202 198 253 301 299 330 67 64 34 22 40 33 30 33 35 33 32 30 28 15 6 3
209 209 214 211 224 234 236 233 212 203 188 134 73 54 35 14 18 27 18 23 27 27 23 19 12 5 1
205 192 203 211 216 220 221 215 205 189 178 151 4 355 349 13 359 16 27 23 23 20 24 23 20 16 9
213 204 191 192 212 205 200 197 191 172 184 210 265 301 1 27 14 18 3 7 9 17 23 19 16 13 8
206 198 189 195 207 190 186 191 198 198 198 221 247 290 305 325 326 323 342 345 349 7 356 359 1 3 10
202 192 189 196 205 194 192 193 196 189 193 197 208 252 289 299 305 317 324 326 316 345 354 344 346 344 343
197 182 183 189 196 192 195 201 205 211 224 236 245 256 281 287 285 307 316 298 307 321 326 321 327 320 322
183 178 184 187 187 199 199 195 205 226 231 236 229 235 232 272 274 255 274 294 309 321 315 325 334 329 326
177 177 183 187 189 188 186 189 199 210 205 215 231 237 231 210 249 282 286 306 321 340 339 341 335 337 346
170 174 179 184 190 194 188 194 193 190 198 194 204 197 205 238 260 264 303 325 340 359 6 359 3 12 14
171 173 175 181 181 184 192 185 184 187 184 192 193 195 187 205 239 343 0 12 25 38 35 53 37 41 18
174 178 179 184 183 187 183 182 183 174 164 158 154 143 123 110 70 46 33 32 36 52 52 94 102 42 20
178 178 181 179 176 181 181 175 165 154 145 139 128 115 98 73 63 44 24 14 17 23 39 85 177 251 310
179 181 180 179 179 174 167 160 147 142 137 131 125 110 97 75 45 32 25 16 22 18 18 28 357 336 328
184 186 190 186 175 164 159 153 148 146 143 141 129 106 74 52 43 30 25 21 22 25 22 21 9 354 345
Wind_Speed_850mb
23 19 16 11 7 4 4 6 5 4 5 9 18 26 30 31 30 27 28 28 28 25 21 17 13 11 11
30 24 18 12 9 7 5 2 2 1 2 7 15 20 24 23 26 29 26 28 27 28 25 20 16 16 15
35 27 23 21 16 12 10 9 6 5 4 7 9 15 20 22 23 24 30 35 31 31 31 28 24 21 20
31 26 24 25 25 23 21 14 13 10 10 15 2 7 5 13 19 20 24 29 32 34 30 30 30 30 29
28 32 27 22 28 24 20 18 18 22 17 8 5 2 5 3 6 12 22 22 26 30 34 33 33 31 30
29 30 34 34 28 24 19 24 23 21 16 11 4 6 2 6 13 7 16 19 19 22 27 27 29 29 28
35 32 34 33 39 26 24 24 21 15 11 7 6 6 10 13 18 18 14 10 12 14 19 20 22 26 26
32 33 32 32 30 30 27 28 24 18 15 17 16 13 21 15 10 12 11 10 10 14 14 15 15 16 16
32 35 36 32 30 28 26 21 18 19 17 16 15 13 10 9 10 7 8 12 12 13 13 11 12 13 13
36 37 35 32 30 26 19 19 22 21 18 16 12 9 7 5 3 9 13 11 12 10 10 9 7 8 10
38 38 34 32 31 28 25 24 27 20 15 14 12 10 9 7 8 8 6 7 8 12 11 9 9 13 10
42 40 39 37 33 30 28 29 24 20 18 14 14 13 9 5 3 3 6 11 16 17 12 6 6 11 9
44 44 42 39 36 33 33 30 24 22 20 16 15 14 11 7 9 12 14 14 16 19 11 14 10 4 7
46 47 43 42 41 38 34 30 27 25 22 19 16 13 12 11 11 12 15 19 21 19 18 6 5 7 8
48 47 47 47 42 40 39 38 34 27 23 17 13 12 10 9 9 14 17 21 26 26 25 16 6 7 32
48 49 46 46 49 48 44 38 33 26 20 15 11 9 7 10 12 16 21 24 23 25 24 24 20 20 15
Wind_Direction_850mb
201 201 196 190 182 170 120 97 75 66 41 42 43 36 33 31 30 32 37 38 38 38 38 38 34 21 14
204 207 210 215 222 202 198 253 301 299 330 67 64 34 22 40 33 30 33 35 33 32 30 28 15 6 3
209 209 214 211 224 234 236 233 212 203 188 134 73 54 35 14 18 27 18 23 27 27 23 19 12 5 1
205 192 203 211 216 220 221 215 205 189 178 151 4 355 349 13 359 16 27 23 23 20 24 23 20 16 9
213 204 191 192 212 205 200 197 191 172 184 210 265 301 1 27 14 18 3 7 9 17 23 19 16 13 8
206 198 189 195 207 190 186 191 198 198 198 221 247 290 305 325 326 323 342 345 349 7 356 359 1 3 10
202 192 189 196 205 194 192 193 196 189 193 197 208 252 289 299 305 317 324 326 316 345 354 344 346 344 343
197 182 183 189 196 192 195 201 205 211 224 236 245 256 281 287 285 307 316 298 307 321 326 321 327 320 322
183 178 184 187 187 199 199 195 205 226 231 236 229 235 232 272 274 255 274 294 309 321 315 325 334 329 326
177 177 183 187 189 188 186 189 199 210 205 215 231 237 231 210 249 282 286 306 321 340 339 341 335 337 346
170 174 179 184 190 194 188 194 193 190 198 194 204 197 205 238 260 264 303 325 340 359 6 359 3 12 14
171 173 175 181 181 184 192 185 184 187 184 192 193 195 187 205 239 343 0 12 25 38 35 53 37 41 18
174 178 179 184 183 187 183 182 183 174 164 158 154 143 123 110 70 46 33 32 36 52 52 94 102 42 20
178 178 181 179 176 181 181 175 165 154 145 139 128 115 98 73 63 44 24 14 17 23 39 85 177 251 310
179 181 180 179 179 174 167 160 147 142 137 131 125 110 97 75 45 32 25 16 22 18 18 28 357 336 328
184 186 190 186 175 164 159 153 148 146 143 141 129 106 74 52 43 30 25 21 22 25 22 21 9 354 345